Weather History for KCDC - January, 2014

Change the Weather History Date:

Saturday, January 11, 2014

  Actual Average Record
Temperature  
Mean Temperature 38 °F 29 °F  
Max Temperature 53 °F 41 °F 67 °F (1990)
Min Temperature 23 °F 16 °F -9 °F (1963)
Degree Days  
Heating Degree Days 27 36  
Month to date heating degree days 370 403  
Since 1 July heating degree days 3225 2965  
Cooling Degree Days 0 0  
Month to date cooling degree days 0 0  
Year to date cooling degree days 0 0  
Moisture  
Dew Point 25 °F    
Average Humidity 63    
Maximum Humidity 88    
Minimum Humidity 38    
Precipitation  
Precipitation 0.00 in 0.03 in 0.35 in (2005)
Month to date precipitation 0.00 0.32  
Year to date precipitation 0.00 0.32  
Sea Level Pressure  
Sea Level Pressure 30.10 in    
Wind  
Wind Speed 8 mph (SSW)    
Max Wind Speed 18 mph    
Max Gust Speed 25 mph    
Visibility 10 miles    
Events      
T = Trace of Precipitation, MM = Missing Value Source: NWS Daily Summary

Daily Weather History Graph

Daily Weather History Graph

Search for Another Location

Airport or City:

Trip Planner

Search our weather history database for the weather conditions in past years. The results will help you decide how hot, cold, wet, or windy it might be!

Date:

Astronomy

Jan. 11, 2014 Rise Set
Actual Time 7:47 AM MST 5:33 PM MST
Civil Twilight 7:18 AM MST 6:02 PM MST
Nautical Twilight 6:46 AM MST 6:34 PM MST
Astronomical Twilight 6:14 AM MST 7:06 PM MST
Moon 2:19 PM MST (1/11) 3:56 AM MST (1/11)
Length of Visible Light 10h 43m
Length of Day
9h 46m
Waxing Gibbous, 83% of the Moon is Illuminated
Jan 11
Waxing Gibbous
Jan 15
Full
Jan 23
Last Quarter
Jan 30
New
Feb 6
First Quarter

Hourly Weather History & Observations

Time (MST) Temp. Windchill Dew Point Humidity Pressure Visibility Wind Dir Wind Speed Gust Speed Precip Events Conditions
12:53 AM 28.0 °F - 21.9 °F 78% 30.20 in 10.0 mi Calm Calm - N/A   Clear
1:53 AM 26.1 °F 20.5 °F 21.9 °F 84% 30.22 in 10.0 mi NE 4.6 mph - N/A   Clear
2:53 AM 27.0 °F 23.0 °F 21.9 °F 81% 30.21 in 10.0 mi SW 3.5 mph - N/A   Clear
3:53 AM 27.0 °F 21.6 °F 21.9 °F 81% 30.21 in 10.0 mi WSW 4.6 mph - N/A   Clear
4:53 AM 27.0 °F 23.0 °F 21.0 °F 78% 30.19 in 10.0 mi NNE 3.5 mph - N/A   Clear
5:53 AM 25.0 °F - 19.9 °F 81% 30.22 in 10.0 mi Calm Calm - N/A   Clear
6:53 AM 25.0 °F 20.7 °F 21.0 °F 85% 30.24 in 10.0 mi South 3.5 mph - N/A   Clear
7:53 AM 26.1 °F - 21.9 °F 84% 30.22 in 10.0 mi Calm Calm - N/A   Clear
8:53 AM 32.0 °F - 26.1 °F 79% 30.22 in 10.0 mi Calm Calm - N/A   Clear
9:53 AM 37.0 °F - 28.0 °F 70% 30.21 in 10.0 mi Calm Calm - N/A   Clear
10:53 AM 48.0 °F - 25.0 °F 41% 30.16 in 10.0 mi SSW 6.9 mph - N/A   Clear
11:53 AM 48.9 °F - 26.1 °F 41% 30.12 in 10.0 mi SSW 13.8 mph 21.9 mph N/A   Clear
12:53 PM 51.1 °F - 27.0 °F 39% 30.08 in 10.0 mi SSW 13.8 mph - N/A   Clear
1:53 PM 52.0 °F - 26.1 °F 37% 30.06 in 10.0 mi SSW 15.0 mph - N/A   Clear
2:53 PM 48.9 °F - 27.0 °F 43% 30.04 in 10.0 mi SSW 12.7 mph - N/A   Clear
3:53 PM 46.9 °F - 27.0 °F 46% 30.04 in 10.0 mi WSW 13.8 mph - N/A   Clear
4:53 PM 45.0 °F 39.7 °F 26.1 °F 48% 30.03 in 10.0 mi SSW 10.4 mph - N/A   Clear
5:53 PM 43.0 °F 36.0 °F 26.1 °F 51% 30.04 in 10.0 mi SSW 13.8 mph - N/A   Clear
6:53 PM 42.1 °F 35.2 °F 26.1 °F 53% 30.02 in 10.0 mi South 12.7 mph - N/A   Clear
7:53 PM 42.1 °F 34.5 °F 26.1 °F 53% 29.99 in 10.0 mi SSW 15.0 mph - N/A   Clear
8:53 PM 42.1 °F 34.9 °F 26.1 °F 53% 29.96 in 10.0 mi SW 13.8 mph - N/A   Clear
9:53 PM 41.0 °F 34.7 °F 25.0 °F 53% 29.95 in 10.0 mi SW 10.4 mph - N/A   Clear
10:53 PM 41.0 °F 33.9 °F 25.0 °F 53% 29.90 in 10.0 mi SSW 12.7 mph - N/A   Clear
11:53 PM 42.1 °F 33.9 °F 25.0 °F 51% 29.86 in 10.0 mi SSW 17.3 mph 23.0 mph N/A   Clear